Location: D�rnast
(49.6426°N, 11.9755°E)
Time: 13:38:20
(UTC+00:00)

ERS-2 - Pass Details

Date: 24 January 2021
Orbit: 492 x 497 km, 98.6° (Epoch: 26 February)

Event Time Altitude Azimuth Distance (km) Brightness Sun altitude
Exits shadow 17:50:06 25° 18° (NNE) 1,026 3.4 -18.5°
Maximum altitude 17:52:07 84° 104° (ESE) 503 1.9 -18.8°
Drops below altitude 10° 17:55:44 10° 194° (SSW) 1,683 5.0 -19.4°
Sets 17:57:48 0° 195° (SSW) 2,560 6.0 -19.7°
